Showing default

ION-SCV-021, 67483

Orbit data source: Space-Track

ION-SCV-021, 67483 is a payload satellite owned by D-ORBIT (IT) in SSO that was launched on Fri, 28 Nov 2025 UTC via an FALCON 9 launch vehicle from the Air Force Western Test Range (AFWTR). Payload-class satellites include a variety of spacecraft equipped with specific instruments for various scientific and technological missions. These include communications satellites like Starlink; space stations such as the ISS; scientific satellites like the Hubble; Earth observation satellites from companies like Planet Labs, Umbra, and HawkEye 360; GPS; miniature CubeSats for education and research; and military/defense satellites.

Loading next visibility...
Identifier
67483, 2025-276DT
Orbit
SSO
Country
Flag of ITIT
Related business
Manufacturer
D-ORBIT
Mission
Operational Commercial Technology
Bus & Motor
ION-SC, PM200
Mass
220 kg wet, 150 kg dry
Launch date (UTC)
2025-11-28 (6 months ago)
Launch vehicle
FALCON 9
Launch site
Air Force Western Test Range (AFWTR)
Object type
Payload
Rocket body
Debris
Shape & HBR
Box, 14.5 m
Radar Cross Section
0.240 m², Large (>1 m²)

Expand to show TLE details & history
Last TLE update: 6 days ago

TLE from 6 days ago
0 ION-SCV-021
1 67483U 25276DT  26155.08228502  .00002229  00000-0  19572-3 0  9998
2 67483  97.5256 226.0131 0012004 156.9483 203.2281 14.97519144 20647
Epoch: 2026-06-04T01:58Z
TLE epoch observation values (Epoch: 2026-06-04T01:58:29.425Z)
Latitude
0.00001°
Longitude
-56.14116°
Altitude
585.294 km
Speed
7.563 km/s
True Right ascension
15h 04m 03s
True Declination
0° 00' 00"
Sunlit
Object was in full shadow at epoch
Visualization orbit readout
Latitude
Unknown
Longitude
Unknown
Altitude
Unknown
Speed
Unknown
Apparent Right ascension
Unknown
Apparent Declination
Unknown
Sunlit
N/A
Visualization observer readout
Local Sidereal Time
22:10:41
Azimuth
Unknown
Elevation
Unknown
Doppler factor
Unknown
Orbital elements
Apogee altitude
579.908 km
Perigee altitude
563.223 km
Semi-major axis
6,949.703 km
Eccentricity
0.0012
Inclination
97.5256°
RAAN
226.0131°
Arg. of periapsis
156.9483°
True anomaly
203.17392°
Mean anomaly
203.2281°
Eccentric anomaly
203.201°
Mean motion
3.74622 °/min
Orbital period
96.1 mins
BSTAR
0.00019572
Loading maneuver chart data...
Computing Atmospheric mass density...
Loading historical data...
Loading historical data...
Loading historical data...
Loading historical data...
Loading historical data...
Loading historical data...
Loading historical data...

Documentation

Showing up to 5 results
|